| time (UTC) | temp C | wind direction | speed KPH | gust KPH | rain 1hr cm | rain 24hr cm | rain mn cm | humidity % | barometer mb |
| 20260507114252 | 6 | 209 | 11.3 | 16.1 | 0.00 | 0.00 | 0.00 | 80 | 1013.3 |
| 20260507113741 | 6 | 211 | 11.3 | 16.1 | 0.00 | 0.00 | 0.00 | 80 | 1013.4 |
| 20260507113224 | 6 | 221 | 11.3 | 16.1 | 0.00 | 0.00 | 0.00 | 80 | 1013.4 |
| 20260507113100 | 6 | 213 | 11.3 | 16.1 | 0.00 | 0.00 | 0.00 | 80 | 1013.4 |
| 20260507113006 | 6 | 213 | 11.3 | 16.1 | 0.00 | 0.00 | 0.00 | 79 | 1013.4 |
| 20260507112735 | 6 | 216 | 12.9 | 16.1 | 0.00 | 0.00 | 0.00 | 79 | 1013.4 |
| 20260507112243 | 6 | 200 | 12.9 | 19.3 | 0.00 | 0.00 | 0.00 | 79 | 1013.4 |
| 20260507111725 | 6 | 209 | 14.5 | 19.3 | 0.00 | 0.00 | 0.00 | 79 | 1013.4 |
| 20260507111509 | 6 | 211 | 12.9 | 19.3 | 0.00 | 0.00 | 0.00 | 79 | 1013.5 |
| 20260507111239 | 6 | 213 | 14.5 | 19.3 | 0.00 | 0.00 | 0.00 | 79 | 1013.4 |
| 20260507110747 | 7 | 217 | 14.5 | 22.5 | 0.00 | 0.00 | 0.00 | 79 | 1013.4 |
| 20260507110232 | 6 | 217 | 14.5 | 22.5 | 0.00 | 0.00 | 0.00 | 79 | 1013.3 |
| 20260507110014 | 6 | 229 | 12.9 | 20.9 | 0.00 | 0.00 | 0.00 | 79 | 1013.4 |
| 20260507105743 | 7 | 214 | 12.9 | 19.3 | 0.00 | 0.00 | 0.00 | 79 | 1013.3 |
| 20260507105228 | 7 | 208 | 14.5 | 17.7 | 0.00 | 0.00 | 0.00 | 79 | 1013.3 |
| 20260507104741 | 7 | 211 | 12.9 | 17.7 | 0.00 | 0.00 | 0.00 | 78 | 1013.3 |
| 20260507104520 | 6 | 214 | 12.9 | 17.7 | 0.00 | 0.00 | 0.00 | 78 | 1013.3 |
| 20260507104226 | 7 | 218 | 12.9 | 20.9 | 0.00 | 0.00 | 0.00 | 78 | 1013.3 |
| 20260507103734 | 7 | 226 | 12.9 | 20.9 | 0.00 | 0.00 | 0.00 | 78 | 1013.3 |
| 20260507103246 | 7 | 209 | 12.9 | 16.1 | 0.00 | 0.00 | 0.00 | 78 | 1013.2 |
| 20260507103024 | 6 | 203 | 12.9 | 17.7 | 0.00 | 0.00 | 0.00 | 77 | 1013.3 |
| 20260507102729 | 7 | 194 | 11.3 | 16.1 | 0.00 | 0.00 | 0.00 | 77 | 1013.3 |
| 20260507102241 | 7 | 215 | 11.3 | 19.3 | 0.00 | 0.00 | 0.00 | 77 | 1013.3 |
| 20260507101725 | 7 | 207 | 12.9 | 19.3 | 0.00 | 0.00 | 0.00 | 77 | 1013.2 |
| 20260507101537 | 7 | 211 | 11.3 | 19.3 | 0.00 | 0.00 | 0.00 | 77 | 1013.3 |
| 20260507101238 | 7 | 188 | 12.9 | 17.7 | 0.00 | 0.00 | 0.00 | 76 | 1013.3 |
| 20260507100746 | 7 | 199 | 12.9 | 17.7 | 0.00 | 0.00 | 0.00 | 76 | 1013.3 |
| 20260507100231 | 7 | 216 | 12.9 | 19.3 | 0.00 | 0.00 | 0.00 | 76 | 1013.4 |
| 20260507100003 | 7 | 221 | 11.3 | 19.3 | 0.00 | 0.00 | 0.00 | 76 | 1013.5 |
| 20260507095745 | 7 | 204 | 11.3 | 19.3 | 0.00 | 0.00 | 0.00 | 76 | 1013.4 |
| 20260507095237 | 7 | 207 | 11.3 | 17.7 | 0.00 | 0.00 | 0.00 | 75 | 1013.4 |
| 20260507094750 | 7 | 213 | 11.3 | 22.5 | 0.00 | 0.00 | 0.00 | 76 | 1013.5 |
| 20260507094549 | 7 | 234 | 14.5 | 22.5 | 0.00 | 0.00 | 0.00 | 76 | 1013.6 |
| 20260507094232 | 7 | 203 | 16.1 | 22.5 | 0.00 | 0.00 | 0.00 | 76 | 1013.5 |
| 20260507093743 | 7 | 213 | 12.9 | 17.7 | 0.00 | 0.00 | 0.00 | 75 | 1013.5 |
| 20260507093226 | 7 | 213 | 14.5 | 19.3 | 0.00 | 0.00 | 0.00 | 75 | 1013.6 |
| 20260507093046 | 7 | 211 | 12.9 | 19.3 | 0.00 | 0.00 | 0.00 | 75 | 1013.7 |
| 20260507092736 | 7 | 199 | 14.5 | 19.3 | 0.00 | 0.00 | 0.00 | 75 | 1013.7 |
| 20260507092307 | 7 | 227 | 12.9 | 19.3 | 0.00 | 0.00 | 0.00 | 74 | 1013.7 |
| 20260507091728 | 7 | 227 | 12.9 | 16.1 | 0.00 | 0.00 | 0.00 | 74 | 1013.8 |
| 20260507091531 | 7 | 225 | 12.9 | 17.7 | 0.00 | 0.00 | 0.00 | 74 | 1013.8 |
| 20260507091239 | 7 | 231 | 12.9 | 17.7 | 0.00 | 0.00 | 0.00 | 74 | 1013.8 |
| 20260507090749 | 7 | 205 | 12.9 | 17.7 | 0.00 | 0.00 | 0.00 | 73 | 1013.9 |
| 20260507090232 | 7 | 246 | 12.9 | 19.3 | 0.00 | 0.00 | 0.00 | 73 | 1013.9 |
| 20260507090034 | 7 | 207 | 12.9 | 19.3 | 0.00 | 0.00 | 0.00 | 73 | 1014.1 |
| 20260507085744 | 7 | 200 | 12.9 | 16.1 | 0.00 | 0.00 | 0.00 | 73 | 1013.9 |
| 20260507085225 | 7 | 209 | 12.9 | 19.3 | 0.00 | 0.00 | 0.00 | 72 | 1014.1 |
| 20260507084733 | 7 | 230 | 12.9 | 17.7 | 0.00 | 0.00 | 0.00 | 72 | 1014.2 |
| 20260507084536 | 7 | 213 | 12.9 | 17.7 | 0.00 | 0.00 | 0.00 | 72 | 1014.3 |
| 20260507084245 | 7 | 227 | 14.5 | 19.3 | 0.00 | 0.00 | 0.00 | 72 | 1014.2 |
| 20260507083726 | 7 | 225 | 12.9 | 19.3 | 0.00 | 0.00 | 0.00 | 71 | 1014.2 |
| 20260507083237 | 7 | 203 | 12.9 | 16.1 | 0.00 | 0.00 | 0.00 | 71 | 1014.3 |
| 20260507083032 | 6 | 218 | 11.3 | 17.7 | 0.00 | 0.00 | 0.00 | 70 | 1014.4 |
| 20260507082233 | 7 | 211 | 12.9 | 17.7 | 0.00 | 0.00 | 0.00 | 70 | 1014.3 |
| 20260507081804 | 7 | 228 | 12.9 | 17.7 | 0.00 | 0.00 | 0.00 | 69 | 1014.4 |
| 20260507081533 | 6 | 226 | 12.9 | 17.7 | 0.00 | 0.00 | 0.00 | 69 | 1014.5 |
| 20260507081226 | 7 | 215 | 12.9 | 17.7 | 0.00 | 0.00 | 0.00 | 69 | 1014.5 |
| 20260507080733 | 7 | 219 | 11.3 | 16.1 | 0.00 | 0.00 | 0.00 | 68 | 1014.5 |
| 20260507080243 | 7 | 215 | 12.9 | 16.1 | 0.00 | 0.00 | 0.00 | 67 | 1014.7 |
| 20260507080039 | 6 | 228 | 12.9 | 16.1 | 0.00 | 0.00 | 0.00 | 67 | 1014.8 |
| 20260507075726 | 7 | 199 | 12.9 | 16.1 | 0.00 | 0.00 | 0.00 | 67 | 1014.7 |
| 20260507075256 | 7 | 211 | 12.9 | 17.7 | 0.00 | 0.00 | 0.00 | 66 | 1014.7 |
| 20260507074746 | 7 | 209 | 12.9 | 17.7 | 0.00 | 0.00 | 0.00 | 65 | 1014.7 |
| 20260507074520 | 6 | 217 | 12.9 | 17.7 | 0.00 | 0.00 | 0.00 | 65 | 1014.9 |
| 20260507074232 | 7 | 215 | 12.9 | 16.1 | 0.00 | 0.00 | 0.00 | 65 | 1014.7 |
| 20260507073740 | 6 | 216 | 12.9 | 16.1 | 0.00 | 0.00 | 0.00 | 65 | 1014.8 |
| 20260507073306 | 6 | 223 | 11.3 | 14.5 | 0.00 | 0.00 | 0.00 | 64 | 1014.8 |
| 20260507073101 | 6 | 221 | 9.7 | 14.5 | 0.00 | 0.00 | 0.00 | 63 | 1015.0 |
| 20260507072728 | 6 | 211 | 11.3 | 16.1 | 0.00 | 0.00 | 0.00 | 63 | 1014.9 |
| 20260507072239 | 6 | 211 | 9.7 | 16.1 | 0.00 | 0.00 | 0.00 | 61 | 1015.0 |
| 20260507071749 | 6 | 204 | 9.7 | 14.5 | 0.00 | 0.00 | 0.00 | 61 | 1015.1 |
| 20260507071557 | 6 | 210 | 9.7 | 14.5 | 0.00 | 0.00 | 0.00 | 60 | 1015.2 |
| 20260507071234 | 7 | 209 | 9.7 | 14.5 | 0.00 | 0.00 | 0.00 | 59 | 1015.2 |
| 20260507070743 | 7 | 197 | 9.7 | 12.9 | 0.00 | 0.00 | 0.00 | 59 | 1015.2 |
| 20260507070226 | 7 | 217 | 9.7 | 11.3 | 0.00 | 0.00 | 0.00 | 58 | 1015.3 |
| 20260507065737 | 7 | 199 | 9.7 | 12.9 | 0.00 | 0.00 | 0.00 | 58 | 1015.4 |
| 20260507065242 | 7 | 194 | 8.0 | 12.9 | 0.00 | 0.00 | 0.00 | 57 | 1015.4 |
| 20260507064726 | 7 | 205 | 8.0 | 12.9 | 0.00 | 0.00 | 0.00 | 56 | 1015.5 |
| 20260507064503 | 7 | 177 | 8.0 | 12.9 | 0.00 | 0.00 | 0.00 | 56 | 1015.7 |
| 20260507064239 | 7 | 203 | 8.0 | 12.9 | 0.00 | 0.00 | 0.00 | 56 | 1015.6 |
| 20260507063749 | 7 | 217 | 9.7 | 12.9 | 0.00 | 0.00 | 0.00 | 55 | 1015.6 |
| 20260507063238 | 7 | 196 | 9.7 | 14.5 | 0.00 | 0.00 | 0.00 | 55 | 1015.7 |
| 20260507063048 | 7 | 197 | 9.7 | 14.5 | 0.00 | 0.00 | 0.00 | 54 | 1015.8 |
| 20260507062749 | 7 | 209 | 8.0 | 12.9 | 0.00 | 0.00 | 0.00 | 54 | 1015.7 |
| 20260507062239 | 7 | 210 | 9.7 | 12.9 | 0.00 | 0.00 | 0.00 | 52 | 1015.8 |
| 20260507061747 | 7 | 207 | 6.4 | 9.7 | 0.00 | 0.00 | 0.00 | 51 | 1015.8 |
| 20260507061526 | 7 | 196 | 4.8 | 8.0 | 0.00 | 0.00 | 0.00 | 51 | 1015.9 |
| 20260507061234 | 7 | 182 | 4.8 | 9.7 | 0.00 | 0.00 | 0.00 | 50 | 1015.8 |
| 20260507060745 | 7 | 196 | 4.8 | 9.7 | 0.00 | 0.00 | 0.00 | 50 | 1015.9 |
| 20260507060227 | 7 | 189 | 6.4 | 9.7 | 0.00 | 0.00 | 0.00 | 49 | 1015.9 |
| 20260507060048 | 7 | 198 | 6.4 | 9.7 | 0.00 | 0.00 | 0.00 | 49 | 1016.0 |
| 20260507055734 | 7 | 202 | 6.4 | 9.7 | 0.00 | 0.00 | 0.00 | 49 | 1015.9 |
| 20260507055246 | 8 | 197 | 6.4 | 11.3 | 0.00 | 0.00 | 0.00 | 48 | 1015.9 |
| 20260507054728 | 8 | 191 | 8.0 | 11.3 | 0.00 | 0.00 | 0.00 | 48 | 1015.9 |
| 20260507054545 | 7 | 206 | 6.4 | 11.3 | 0.00 | 0.00 | 0.00 | 48 | 1016.1 |
| 20260507054240 | 8 | 199 | 6.4 | 11.3 | 0.00 | 0.00 | 0.00 | 48 | 1015.9 |
| 20260507053748 | 8 | 194 | 6.4 | 9.7 | 0.00 | 0.00 | 0.00 | 47 | 1016.0 |
| 20260507053233 | 8 | 187 | 6.4 | 9.7 | 0.00 | 0.00 | 0.00 | 47 | 1015.9 |
| 20260507053040 | 7 | 190 | 6.4 | 8.0 | 0.00 | 0.00 | 0.00 | 47 | 1016.0 |
| 20260507052744 | 8 | 167 | 8.0 | 9.7 | 0.00 | 0.00 | 0.00 | 47 | 1015.9 |
| 20260507052255 | 8 | 161 | 6.4 | 9.7 | 0.00 | 0.00 | 0.00 | 47 | 1015.9 |
| 20260507051805 | 8 | 169 | 8.0 | 9.7 | 0.00 | 0.00 | 0.00 | 47 | 1015.9 |
| 20260507051533 | 8 | 179 | 6.4 | 9.7 | 0.00 | 0.00 | 0.00 | 46 | 1016.1 |
| 20260507051229 | 8 | 169 | 6.4 | 9.7 | 0.00 | 0.00 | 0.00 | 46 | 1016.0 |
| 20260507050754 | 8 | 157 | 4.8 | 8.0 | 0.00 | 0.00 | 0.00 | 45 | 1016.1 |
| 20260507050245 | 8 | 157 | 4.8 | 8.0 | 0.00 | 0.00 | 0.00 | 45 | 1016.1 |
| 20260507050016 | 8 | 157 | 4.8 | 8.0 | 0.00 | 0.00 | 0.00 | 45 | 1016.2 |
| 20260507045749 | 8 | 170 | 4.8 | 8.0 | 0.00 | 0.00 | 0.00 | 45 | 1016.1 |
| 20260507045231 | 8 | 147 | 4.8 | 6.4 | 0.00 | 0.00 | 0.00 | 45 | 1016.1 |
| 20260507044741 | 8 | 147 | 3.2 | 6.4 | 0.00 | 0.00 | 0.00 | 45 | 1016.2 |
| 20260507044530 | 8 | 147 | 3.2 | 6.4 | 0.00 | 0.00 | 0.00 | 45 | 1016.2 |
| 20260507044224 | 8 | 147 | 4.8 | 8.0 | 0.00 | 0.00 | 0.00 | 44 | 1016.2 |
| 20260507043754 | 8 | 147 | 4.8 | 8.0 | 0.00 | 0.00 | 0.00 | 44 | 1016.2 |
| 20260507043241 | 8 | 132 | 4.8 | 8.0 | 0.00 | 0.00 | 0.00 | 44 | 1016.3 |
| 20260507043057 | 8 | 132 | 4.8 | 6.4 | 0.00 | 0.00 | 0.00 | 44 | 1016.3 |
| 20260507042753 | 8 | 132 | 4.8 | 6.4 | 0.00 | 0.00 | 0.00 | 44 | 1016.3 |
| 20260507042244 | 8 | 132 | 4.8 | 6.4 | 0.00 | 0.00 | 0.00 | 43 | 1016.3 |
| 20260507041726 | 8 | 132 | 6.4 | 6.4 | 0.00 | 0.00 | 0.00 | 43 | 1016.3 |
| 20260507041538 | 8 | 132 | 4.8 | 6.4 | 0.00 | 0.00 | 0.00 | 43 | 1016.4 |
| 20260507041240 | 8 | 132 | 4.8 | 6.4 | 0.00 | 0.00 | 0.00 | 43 | 1016.3 |
| 20260507040723 | 8 | 132 | 4.8 | 8.0 | 0.00 | 0.00 | 0.00 | 43 | 1016.3 |
| 20260507040236 | 9 | 132 | 4.8 | 8.0 | 0.00 | 0.00 | 0.00 | 42 | 1016.4 |
| 20260507040044 | 8 | 132 | 4.8 | 8.0 | 0.00 | 0.00 | 0.00 | 42 | 1016.5 |
| 20260507035744 | 9 | 169 | 3.2 | 6.4 | 0.00 | 0.00 | 0.00 | 42 | 1016.4 |
| 20260507035237 | 9 | 169 | 3.2 | 6.4 | 0.00 | 0.00 | 0.00 | 42 | 1016.4 |
| 20260507034748 | 9 | 169 | 1.6 | 6.4 | 0.00 | 0.00 | 0.00 | 42 | 1016.5 |
| 20260507034536 | 9 | 169 | 1.6 | 6.4 | 0.00 | 0.00 | 0.00 | 40 | 1016.7 |
| 20260507034234 | 9 | 169 | 3.2 | 6.4 | 0.00 | 0.00 | 0.00 | 40 | 1016.6 |
| 20260507033744 | 9 | 169 | 3.2 | 4.8 | 0.00 | 0.00 | 0.00 | 39 | 1016.6 |
| 20260507033226 | 10 | 169 | 4.8 | 6.4 | 0.00 | 0.00 | 0.00 | 38 | 1016.6 |
| 20260507033036 | 9 | 169 | 3.2 | 6.4 | 0.00 | 0.00 | 0.00 | 38 | 1016.7 |
| 20260507032738 | 10 | 169 | 4.8 | 8.0 | 0.00 | 0.00 | 0.00 | 38 | 1016.6 |
| 20260507032222 | 10 | 169 | 6.4 | 6.4 | 0.00 | 0.00 | 0.00 | 38 | 1016.7 |
| 20260507031729 | 10 | 169 | 6.4 | 6.4 | 0.00 | 0.00 | 0.00 | 37 | 1016.6 |
| 20260507031546 | 10 | 169 | 4.8 | 6.4 | 0.00 | 0.00 | 0.00 | 37 | 1016.7 |
| 20260507031242 | 10 | 169 | 4.8 | 6.4 | 0.00 | 0.00 | 0.00 | 37 | 1016.6 |
| 20260507030754 | 10 | 169 | 6.4 | 8.0 | 0.00 | 0.00 | 0.00 | 36 | 1016.7 |
| 20260507030246 | 10 | 169 | 4.8 | 8.0 | 0.00 | 0.00 | 0.00 | 36 | 1016.7 |
| 20260507030028 | 10 | 169 | 6.4 | 6.4 | 0.00 | 0.00 | 0.00 | 36 | 1016.7 |
| 20260507025728 | 11 | 169 | 6.4 | 8.0 | 0.00 | 0.00 | 0.00 | 36 | 1016.6 |
| 20260507025240 | 11 | 169 | 4.8 | 6.4 | 0.00 | 0.00 | 0.00 | 36 | 1016.6 |
| 20260507024752 | 11 | 169 | 4.8 | 8.0 | 0.00 | 0.00 | 0.00 | 36 | 1016.6 |
| 20260507024524 | 11 | 169 | 4.8 | 8.0 | 0.00 | 0.00 | 0.00 | 36 | 1016.7 |
| 20260507024240 | 11 | 169 | 4.8 | 9.7 | 0.00 | 0.00 | 0.00 | 35 | 1016.6 |
| 20260507023722 | 11 | 173 | 8.0 | 9.7 | 0.00 | 0.00 | 0.00 | 35 | 1016.5 |
| 20260507023235 | 11 | 177 | 3.2 | 4.8 | 0.00 | 0.00 | 0.00 | 34 | 1016.4 |
| 20260507023028 | 11 | 187 | 1.6 | 4.8 | 0.00 | 0.00 | 0.00 | 34 | 1016.5 |
| 20260507022747 | 11 | 187 | 3.2 | 4.8 | 0.00 | 0.00 | 0.00 | 34 | 1016.4 |
| 20260507022229 | 11 | 205 | 3.2 | 4.8 | 0.00 | 0.00 | 0.00 | 33 | 1016.4 |
| 20260507021741 | 11 | 205 | 3.2 | 4.8 | 0.00 | 0.00 | 0.00 | 32 | 1016.4 |
| 20260507021530 | 11 | 205 | 1.6 | 4.8 | 0.00 | 0.00 | 0.00 | 32 | 1016.5 |
| 20260507021226 | 12 | 205 | 3.2 | 4.8 | 0.00 | 0.00 | 0.00 | 32 | 1016.4 |
| 20260507020739 | 12 | 205 | 3.2 | 4.8 | 0.00 | 0.00 | 0.00 | 32 | 1016.4 |
| 20260507020221 | 12 | 205 | 1.6 | 4.8 | 0.00 | 0.00 | 0.00 | 31 | 1016.4 |
| 20260507020046 | 12 | 205 | 3.2 | 4.8 | 0.00 | 0.00 | 0.00 | 31 | 1016.4 |
| 20260507015728 | 12 | 205 | 3.2 | 4.8 | 0.00 | 0.00 | 0.00 | 31 | 1016.4 |
| 20260507015240 | 12 | 205 | 3.2 | 4.8 | 0.00 | 0.00 | 0.00 | 30 | 1016.4 |
| 20260507014725 | 12 | 205 | 3.2 | 4.8 | 0.00 | 0.00 | 0.00 | 30 | 1016.4 |
| 20260507014546 | 12 | 274 | 3.2 | 4.8 | 0.00 | 0.00 | 0.00 | 30 | 1016.5 |
| 20260507014258 | 12 | 274 | 3.2 | 4.8 | 0.00 | 0.00 | 0.00 | 30 | 1016.4 |
| 20260507013722 | 13 | 274 | 3.2 | 4.8 | 0.00 | 0.00 | 0.00 | 30 | 1016.3 |
| 20260507013233 | 13 | 274 | 0.0 | 3.2 | 0.00 | 0.00 | 0.00 | 30 | 1016.3 |
| 20260507013017 | 13 | 274 | 0.0 | 3.2 | 0.00 | 0.00 | 0.00 | 30 | 1016.3 |
| 20260507012800 | 13 | 274 | 1.6 | 3.2 | 0.00 | 0.00 | 0.00 | 29 | 1016.3 |
| 20260507012224 | 13 | 274 | 1.6 | 4.8 | 0.00 | 0.00 | 0.00 | 29 | 1016.3 |
| 20260507011736 | 14 | 274 | 3.2 | 4.8 | 0.00 | 0.00 | 0.00 | 29 | 1016.3 |
| 20260507011506 | 14 | 274 | 0.0 | 6.4 | 0.00 | 0.00 | 0.00 | 29 | 1016.4 |
| 20260507011251 | 14 | 274 | 3.2 | 6.4 | 0.00 | 0.00 | 0.00 | 29 | 1016.3 |
| 20260507010733 | 15 | 274 | 3.2 | 6.4 | 0.00 | 0.00 | 0.00 | 28 | 1016.3 |
| 20260507010243 | 15 | 298 | 3.2 | 6.4 | 0.00 | 0.00 | 0.00 | 27 | 1016.3 |
| 20260507010010 | 15 | 298 | 0.0 | 6.4 | 0.00 | 0.00 | 0.00 | 27 | 1016.4 |
| 20260507005726 | 15 | 298 | 3.2 | 6.4 | 0.00 | 0.00 | 0.00 | 27 | 1016.3 |
| 20260507005238 | 15 | 309 | 3.2 | 8.0 | 0.00 | 0.00 | 0.00 | 27 | 1016.4 |
| 20260507004746 | 15 | 295 | 4.8 | 9.7 | 0.00 | 0.00 | 0.00 | 27 | 1016.4 |
| 20260507004556 | 15 | 299 | 4.8 | 16.1 | 0.00 | 0.00 | 0.00 | 27 | 1016.5 |
| 20260507004240 | 15 | 314 | 4.8 | 16.1 | 0.00 | 0.00 | 0.00 | 28 | 1016.4 |
| 20260507003750 | 15 | 302 | 11.3 | 16.1 | 0.00 | 0.00 | 0.00 | 27 | 1016.4 |
| 20260507003234 | 15 | 318 | 8.0 | 16.1 | 0.00 | 0.00 | 0.00 | 28 | 1016.4 |
| 20260507003057 | 15 | 295 | 6.4 | 17.7 | 0.00 | 0.00 | 0.00 | 28 | 1016.5 |
| 20260507002746 | 15 | 305 | 6.4 | 17.7 | 0.00 | 0.00 | 0.00 | 27 | 1016.4 |
| 20260507002227 | 15 | 351 | 11.3 | 17.7 | 0.00 | 0.00 | 0.00 | 26 | 1016.5 |
| 20260507001740 | 15 | 317 | 6.4 | 12.9 | 0.00 | 0.00 | 0.00 | 27 | 1016.5 |
| 20260507001554 | 15 | 316 | 8.0 | 12.9 | 0.00 | 0.00 | 0.00 | 27 | 1016.6 |
| 20260507001225 | 15 | 326 | 8.0 | 14.5 | 0.00 | 0.00 | 0.00 | 27 | 1016.5 |
| 20260507000731 | 15 | 282 | 8.0 | 16.1 | 0.00 | 0.00 | 0.00 | 27 | 1016.6 |
| 20260507000241 | 15 | 309 | 9.7 | 17.7 | 0.00 | 0.00 | 0.00 | 27 | 1016.7 |
| 20260507000037 | 15 | 271 | 9.7 | 17.7 | 0.00 | 0.00 | 0.00 | 27 | 1016.8 |
| 20260506235721 | 15 | 298 | 9.7 | 17.7 | 0.00 | 0.00 | 0.00 | 27 | 1016.7 |
| 20260506235234 | 15 | 296 | 11.3 | 19.3 | 0.00 | 0.00 | 0.00 | 27 | 1016.8 |
| 20260506234747 | 16 | 260 | 12.9 | 20.9 | 0.00 | 0.00 | 0.00 | 28 | 1016.8 |
| 20260506234546 | 15 | 279 | 12.9 | 20.9 | 0.00 | 0.00 | 0.00 | 27 | 1016.9 |
| 20260506234232 | 16 | 300 | 12.9 | 25.7 | 0.00 | 0.00 | 0.00 | 27 | 1016.9 |
| 20260506233740 | 16 | 260 | 14.5 | 25.7 | 0.00 | 0.00 | 0.00 | 26 | 1016.9 |
| 20260506233224 | 16 | 292 | 16.1 | 25.7 | 0.00 | 0.00 | 0.00 | 27 | 1016.9 |
| 20260506233046 | 16 | 309 | 16.1 | 25.7 | 0.00 | 0.00 | 0.00 | 27 | 1017.0 |
| 20260506232752 | 16 | 311 | 16.1 | 25.7 | 0.00 | 0.00 | 0.00 | 28 | 1016.8 |
| 20260506232243 | 16 | 360 | 4.8 | 17.7 | 0.00 | 0.00 | 0.00 | 27 | 1016.8 |
| 20260506231729 | 16 | 328 | 8.0 | 17.7 | 0.00 | 0.00 | 0.00 | 28 | 1016.9 |
| 20260506231538 | 16 | 286 | 9.7 | 17.7 | 0.00 | 0.00 | 0.00 | 28 | 1017.1 |
| 20260506231242 | 16 | 338 | 11.3 | 29.0 | 0.00 | 0.00 | 0.00 | 28 | 1017.0 |
| 20260506230725 | 16 | 300 | 17.7 | 30.6 | 0.00 | 0.00 | 0.00 | 29 | 1017.0 |
| 20260506230237 | 16 | 278 | 9.7 | 30.6 | 0.00 | 0.00 | 0.00 | 27 | 1017.0 |
| 20260506230041 | 15 | 281 | 17.7 | 30.6 | 0.00 | 0.00 | 0.00 | 27 | 1017.2 |
| 20260506225748 | 16 | 292 | 17.7 | 27.4 | 0.00 | 0.00 | 0.00 | 27 | 1017.0 |
| 20260506225228 | 16 | 292 | 20.9 | 27.4 | 0.00 | 0.00 | 0.00 | 28 | 1017.0 |
| 20260506224740 | 16 | 306 | 11.3 | 22.5 | 0.00 | 0.00 | 0.00 | 27 | 1017.0 |
| 20260506224556 | 16 | 283 | 11.3 | 24.1 | 0.00 | 0.00 | 0.00 | 29 | 1017.2 |
| 20260506224226 | 16 | 288 | 9.7 | 29.0 | 0.00 | 0.00 | 0.00 | 29 | 1017.1 |
| 20260506223758 | 16 | 306 | 16.1 | 29.0 | 0.00 | 0.00 | 0.00 | 28 | 1017.1 |
| 20260506223221 | 16 | 355 | 14.5 | 29.0 | 0.00 | 0.00 | 0.00 | 26 | 1017.1 |
| 20260506223029 | 16 | 336 | 17.7 | 32.2 | 0.00 | 0.00 | 0.00 | 28 | 1017.3 |
| 20260506222733 | 17 | 316 | 14.5 | 32.2 | 0.00 | 0.00 | 0.00 | 27 | 1017.2 |
| 20260506222246 | 16 | 305 | 17.7 | 32.2 | 0.00 | 0.00 | 0.00 | 26 | 1017.1 |
| 20260506221730 | 16 | 309 | 24.1 | 32.2 | 0.00 | 0.00 | 0.00 | 27 | 1017.2 |
| 20260506221531 | 16 | 296 | 14.5 | 32.2 | 0.00 | 0.00 | 0.00 | 28 | 1017.4 |
| 20260506221239 | 16 | 304 | 19.3 | 32.2 | 0.00 | 0.00 | 0.00 | 27 | 1017.3 |
| 20260506220749 | 17 | 313 | 20.9 | 32.2 | 0.00 | 0.00 | 0.00 | 27 | 1017.3 |
| 20260506220232 | 17 | 337 | 12.9 | 29.0 | 0.00 | 0.00 | 0.00 | 26 | 1017.3 |
| 20260506220041 | 17 | 281 | 14.5 | 29.0 | 0.00 | 0.00 | 0.00 | 28 | 1017.5 |
| 20260506215746 | 17 | 284 | 17.7 | 33.8 | 0.00 | 0.00 | 0.00 | 27 | 1017.4 |
| 20260506215235 | 17 | 299 | 17.7 | 33.8 | 0.00 | 0.00 | 0.00 | 28 | 1017.4 |
| 20260506214747 | 17 | 295 | 19.3 | 27.4 | 0.00 | 0.00 | 0.00 | 27 | 1017.4 |
| 20260506214523 | 16 | 303 | 8.0 | 30.6 | 0.00 | 0.00 | 0.00 | 32 | 1017.6 |
| 20260506214232 | 16 | 315 | 14.5 | 30.6 | 0.00 | 0.00 | 0.00 | 28 | 1017.5 |
| 20260506213738 | 16 | 292 | 20.9 | 37.0 | 0.00 | 0.00 | 0.00 | 27 | 1017.5 |
| 20260506213221 | 16 | 301 | 19.3 | 37.0 | 0.00 | 0.00 | 0.00 | 29 | 1017.6 |
| 20260506213033 | 16 | 315 | 14.5 | 25.7 | 0.00 | 0.00 | 0.00 | 30 | 1017.7 |
| 20260506212735 | 17 | 345 | 11.3 | 24.1 | 0.00 | 0.00 | 0.00 | 29 | 1017.6 |
| 20260506212247 | 16 | 283 | 12.9 | 27.4 | 0.00 | 0.00 | 0.00 | 29 | 1017.7 |
| 20260506211740 | 16 | 292 | 9.7 | 30.6 | 0.00 | 0.00 | 0.00 | 33 | 1017.7 |
| 20260506211513 | 16 | 294 | 19.3 | 37.0 | 0.00 | 0.00 | 0.00 | 30 | 1018.0 |
| 20260506211226 | 16 | 5 | 19.3 | 37.0 | 0.00 | 0.00 | 0.00 | 27 | 1017.7 |
| 20260506210736 | 17 | 344 | 19.3 | 37.0 | 0.00 | 0.00 | 0.00 | 29 | 1017.8 |
| 20260506210304 | 16 | 272 | 16.1 | 25.7 | 0.00 | 0.00 | 0.00 | 30 | 1017.8 |
| 20260506210053 | 16 | 266 | 11.3 | 25.7 | 0.00 | 0.00 | 0.00 | 28 | 1018.1 |
| 20260506205726 | 16 | 298 | 9.7 | 33.8 | 0.00 | 0.00 | 0.00 | 31 | 1018.1 |
| 20260506205239 | 16 | 255 | 17.7 | 33.8 | 0.00 | 0.00 | 0.00 | 29 | 1018.2 |
| 20260506204809 | 16 | 306 | 16.1 | 30.6 | 0.00 | 0.00 | 0.00 | 30 | 1018.1 |
| 20260506204531 | 16 | 281 | 12.9 | 30.6 | 0.00 | 0.00 | 0.00 | 32 | 1018.2 |
| 20260506204232 | 16 | 292 | 12.9 | 24.1 | 0.00 | 0.00 | 0.00 | 32 | 1018.3 |
| 20260506203743 | 16 | 328 | 8.0 | 35.4 | 0.00 | 0.00 | 0.00 | 28 | 1018.3 |
| 20260506203227 | 16 | 292 | 20.9 | 35.4 | 0.00 | 0.00 | 0.00 | 29 | 1018.4 |
| 20260506203037 | 16 | 281 | 22.5 | 35.4 | 0.00 | 0.00 | 0.00 | 28 | 1018.4 |
| 20260506202736 | 16 | 304 | 20.9 | 32.2 | 0.00 | 0.00 | 0.00 | 31 | 1018.5 |
| 20260506202243 | 16 | 299 | 12.9 | 35.4 | 0.00 | 0.00 | 0.00 | 29 | 1018.5 |
| 20260506201724 | 17 | 275 | 16.1 | 35.4 | 0.00 | 0.00 | 0.00 | 30 | 1018.5 |
| 20260506201543 | 16 | 306 | 24.1 | 35.4 | 0.00 | 0.00 | 0.00 | 31 | 1018.7 |
| 20260506201237 | 16 | 291 | 19.3 | 32.2 | 0.00 | 0.00 | 0.00 | 31 | 1018.6 |
| 20260506200806 | 16 | 332 | 19.3 | 29.0 | 0.00 | 0.00 | 0.00 | 29 | 1018.6 |
| 20260506200227 | 17 | 335 | 11.3 | 30.6 | 0.00 | 0.00 | 0.00 | 34 | 1018.6 |
| 20260506200019 | 16 | 344 | 12.9 | 30.6 | 0.00 | 0.00 | 0.00 | 37 | 1018.8 |
| 20260506195801 | 15 | 321 | 11.3 | 30.6 | 0.00 | 0.00 | 0.00 | 35 | 1018.6 |
| 20260506195225 | 15 | 279 | 14.5 | 27.4 | 0.00 | 0.00 | 0.00 | 35 | 1018.7 |
| 20260506194732 | 15 | 333 | 16.1 | 32.2 | 0.00 | 0.00 | 0.00 | 31 | 1018.8 |
| 20260506194505 | 15 | 302 | 14.5 | 32.2 | 0.00 | 0.00 | 0.00 | 32 | 1018.9 |
| 20260506194245 | 16 | 293 | 17.7 | 32.2 | 0.00 | 0.00 | 0.00 | 31 | 1018.8 |
| 20260506193729 | 15 | 305 | 20.9 | 33.8 | 0.00 | 0.00 | 0.00 | 34 | 1018.8 |
| 20260506193300 | 15 | 346 | 19.3 | 33.8 | 0.00 | 0.00 | 0.00 | 31 | 1018.8 |
| 20260506193040 | 15 | 315 | 20.9 | 33.8 | 0.00 | 0.00 | 0.00 | 32 | 1019.0 |
| 20260506192723 | 15 | 271 | 12.9 | 29.0 | 0.00 | 0.00 | 0.00 | 34 | 1018.7 |
| 20260506192236 | 16 | 289 | 16.1 | 32.2 | 0.00 | 0.00 | 0.00 | 32 | 1018.8 |
| 20260506191749 | 16 | 312 | 20.9 | 32.2 | 0.00 | 0.00 | 0.00 | 31 | 1018.8 |
| 20260506191551 | 16 | 286 | 24.1 | 32.2 | 0.00 | 0.00 | 0.00 | 32 | 1018.9 |
| 20260506191231 | 15 | 311 | 16.1 | 37.0 | 0.00 | 0.00 | 0.00 | 33 | 1018.7 |
| 20260506190744 | 16 | 278 | 19.3 | 40.2 | 0.00 | 0.00 | 0.00 | 30 | 1018.8 |
| 20260506190235 | 16 | 267 | 25.7 | 40.2 | 0.00 | 0.00 | 0.00 | 32 | 1018.8 |
| 20260506190033 | 16 | 287 | 22.5 | 38.6 | 0.00 | 0.00 | 0.00 | 33 | 1019.0 |
| 20260506185745 | 16 | 248 | 24.1 | 38.6 | 0.00 | 0.00 | 0.00 | 33 | 1018.8 |
| 20260506185227 | 15 | 316 | 22.5 | 33.8 | 0.00 | 0.00 | 0.00 | 31 | 1018.9 |
| 20260506184740 | 14 | 340 | 22.5 | 33.8 | 0.00 | 0.00 | 0.00 | 32 | 1019.0 |
| 20260506184535 | 14 | 5 | 17.7 | 29.0 | 0.00 | 0.00 | 0.00 | 33 | 1019.2 |
| 20260506184225 | 15 | 316 | 16.1 | 29.0 | 0.00 | 0.00 | 0.00 | 32 | 1019.2 |
| 20260506183734 | 15 | 321 | 12.9 | 27.4 | 0.00 | 0.00 | 0.00 | 36 | 1019.2 |
| 20260506183239 | 14 | 288 | 11.3 | 32.2 | 0.00 | 0.00 | 0.00 | 34 | 1019.3 |
| 20260506183044 | 14 | 336 | 11.3 | 32.2 | 0.00 | 0.00 | 0.00 | 33 | 1019.4 |
| 20260506182750 | 15 | 323 | 14.5 | 32.2 | 0.00 | 0.00 | 0.00 | 35 | 1019.3 |
| 20260506182231 | 15 | 345 | 16.1 | 24.1 | 0.00 | 0.00 | 0.00 | 34 | 1019.3 |
| 20260506181743 | 15 | 317 | 8.0 | 29.0 | 0.00 | 0.00 | 0.00 | 39 | 1019.3 |
| 20260506181547 | 14 | 355 | 11.3 | 29.0 | 0.00 | 0.00 | 0.00 | 39 | 1019.6 |
| 20260506181228 | 15 | 355 | 19.3 | 29.0 | 0.00 | 0.00 | 0.00 | 32 | 1019.4 |
| 20260506180800 | 16 | 344 | 19.3 | 29.0 | 0.00 | 0.00 | 0.00 | 34 | 1019.4 |
| 20260506180250 | 15 | 331 | 14.5 | 22.5 | 0.00 | 0.00 | 0.00 | 39 | 1019.3 |
| 20260506180045 | 15 | 250 | 12.9 | 27.4 | 0.00 | 0.00 | 0.00 | 33 | 1019.6 |
| 20260506175739 | 16 | 297 | 11.3 | 29.0 | 0.00 | 0.00 | 0.00 | 38 | 1019.5 |
| 20260506175249 | 15 | 284 | 19.3 | 35.4 | 0.00 | 0.00 | 0.00 | 34 | 1019.7 |
| 20260506174732 | 15 | 288 | 20.9 | 35.4 | 0.00 | 0.00 | 0.00 | 35 | 1019.6 |
| 20260506174549 | 15 | 265 | 14.5 | 29.0 | 0.00 | 0.00 | 0.00 | 37 | 1019.9 |
| 20260506174306 | 15 | 249 | 14.5 | 33.8 | 0.00 | 0.00 | 0.00 | 37 | 1019.7 |
| 20260506173727 | 15 | 251 | 22.5 | 33.8 | 0.00 | 0.00 | 0.00 | 33 | 1019.8 |
| 20260506173259 | 15 | 330 | 20.9 | 40.2 | 0.00 | 0.00 | 0.00 | 35 | 1019.9 |
| 20260506173002 | 15 | 296 | 22.5 | 40.2 | 0.00 | 0.00 | 0.00 | 34 | 1020.1 |
| 20260506172745 | 15 | 298 | 20.9 | 40.2 | 0.00 | 0.00 | 0.00 | 33 | 1019.9 |
| 20260506172226 | 15 | 282 | 20.9 | 32.2 | 0.00 | 0.00 | 0.00 | 35 | 1019.9 |
| 20260506171739 | 15 | 322 | 11.3 | 24.1 | 0.00 | 0.00 | 0.00 | 38 | 1020.1 |
| 20260506171508 | 14 | 309 | 16.1 | 24.1 | 0.00 | 0.00 | 0.00 | 39 | 1020.3 |
| 20260506171254 | 13 | 338 | 9.7 | 17.7 | 0.00 | 0.00 | 0.00 | 42 | 1020.2 |
| 20260506170745 | 13 | 265 | 11.3 | 22.5 | 0.00 | 0.00 | 0.00 | 38 | 1020.2 |
| 20260506170228 | 13 | 292 | 11.3 | 30.6 | 0.00 | 0.00 | 0.00 | 37 | 1020.2 |
| 20260506170048 | 13 | 347 | 11.3 | 30.6 | 0.00 | 0.00 | 0.00 | 43 | 1020.3 |
| 20260506165739 | 13 | 329 | 11.3 | 30.6 | 0.00 | 0.00 | 0.00 | 36 | 1020.2 |
| 20260506165221 | 14 | 333 | 20.9 | 30.6 | 0.00 | 0.00 | 0.00 | 38 | 1020.2 |
| 20260506164728 | 13 | 315 | 14.5 | 29.0 | 0.00 | 0.00 | 0.00 | 37 | 1020.3 |
| 20260506164559 | 13 | 328 | 12.9 | 30.6 | 0.00 | 0.00 | 0.00 | 39 | 1020.4 |
| 20260506164242 | 13 | 312 | 17.7 | 32.2 | 0.00 | 0.00 | 0.00 | 38 | 1020.4 |
| 20260506163723 | 13 | 320 | 24.1 | 32.2 | 0.00 | 0.00 | 0.00 | 35 | 1020.3 |
| 20260506163237 | 13 | 288 | 20.9 | 30.6 | 0.00 | 0.00 | 0.00 | 37 | 1020.3 |
| 20260506163008 | 13 | 360 | 12.9 | 27.4 | 0.00 | 0.00 | 0.00 | 38 | 1020.5 |
| 20260506162747 | 13 | 348 | 14.5 | 32.2 | 0.00 | 0.00 | 0.00 | 36 | 1020.3 |
| 20260506162232 | 13 | 253 | 14.5 | 32.2 | 0.00 | 0.00 | 0.00 | 38 | 1020.4 |
| 20260506161743 | 13 | 293 | 16.1 | 29.0 | 0.00 | 0.00 | 0.00 | 38 | 1020.4 |
| 20260506161511 | 13 | 294 | 19.3 | 29.0 | 0.00 | 0.00 | 0.00 | 39 | 1020.5 |
| 20260506161226 | 13 | 314 | 17.7 | 29.0 | 0.00 | 0.00 | 0.00 | 38 | 1020.3 |
| 20260506160732 | 12 | 253 | 14.5 | 27.4 | 0.00 | 0.00 | 0.00 | 39 | 1020.3 |
| 20260506160246 | 12 | 306 | 17.7 | 25.7 | 0.00 | 0.00 | 0.00 | 37 | 1020.2 |
| 20260506160015 | 12 | 285 | 14.5 | 25.7 | 0.00 | 0.00 | 0.00 | 39 | 1020.5 |
| 20260506155730 | 12 | 355 | 14.5 | 25.7 | 0.00 | 0.00 | 0.00 | 38 | 1020.4 |
| 20260506155244 | 12 | 309 | 14.5 | 20.9 | 0.00 | 0.00 | 0.00 | 39 | 1020.2 |
| 20260506154726 | 12 | 323 | 6.4 | 41.8 | 0.00 | 0.00 | 0.00 | 37 | 1020.2 |
| 20260506154512 | 12 | 288 | 12.9 | 41.8 | 0.00 | 0.00 | 0.00 | 39 | 1020.3 |
| 20260506154300 | 12 | 293 | 16.1 | 41.8 | 0.00 | 0.00 | 0.00 | 37 | 1020.2 |
| 20260506153723 | 13 | 325 | 11.3 | 24.1 | 0.00 | 0.00 | 0.00 | 37 | 1020.2 |
| 20260506153230 | 12 | 307 | 9.7 | 24.1 | 0.00 | 0.00 | 0.00 | 40 | 1020.2 |
| 20260506153053 | 12 | 302 | 14.5 | 30.6 | 0.00 | 0.00 | 0.00 | 37 | 1020.4 |
| 20260506152743 | 13 | 348 | 14.5 | 30.6 | 0.00 | 0.00 | 0.00 | 39 | 1020.1 |
| 20260506152227 | 13 | 290 | 14.5 | 24.1 | 0.00 | 0.00 | 0.00 | 39 | 1020.1 |
| 20260506151758 | 13 | 295 | 12.9 | 22.5 | 0.00 | 0.00 | 0.00 | 40 | 1020.0 |
| 20260506151538 | 12 | 336 | 14.5 | 22.5 | 0.00 | 0.00 | 0.00 | 40 | 1020.3 |
| 20260506151311 | 13 | 315 | 4.8 | 20.9 | 0.00 | 0.00 | 0.00 | 41 | 1020.1 |
| 20260506150731 | 12 | 303 | 12.9 | 20.9 | 0.00 | 0.00 | 0.00 | 39 | 1020.1 |
| 20260506150241 | 12 | 336 | 8.0 | 20.9 | 0.00 | 0.00 | 0.00 | 41 | 1020.2 |
| 20260506150016 | 11 | 336 | 4.8 | 20.9 | 0.00 | 0.00 | 0.00 | 44 | 1020.4 |
| 20260506145747 | 12 | 324 | 12.9 | 20.9 | 0.00 | 0.00 | 0.00 | 43 | 1020.2 |
| 20260506145237 | 11 | 323 | 8.0 | 17.7 | 0.00 | 0.00 | 0.00 | 44 | 1020.3 |
| 20260506144721 | 12 | 313 | 11.3 | 16.1 | 0.00 | 0.00 | 0.00 | 45 | 1020.2 |
| 20260506144504 | 11 | 329 | 6.4 | 16.1 | 0.00 | 0.00 | 0.00 | 42 | 1020.5 |
| 20260506144236 | 11 | 355 | 8.0 | 16.1 | 0.00 | 0.00 | 0.00 | 43 | 1020.2 |
| 20260506143745 | 12 | 355 | 6.4 | 16.1 | 0.00 | 0.00 | 0.00 | 45 | 1020.3 |
| 20260506143255 | 11 | 340 | 9.7 | 12.9 | 0.00 | 0.00 | 0.00 | 44 | 1020.2 |
| 20260506143033 | 11 | 336 | 6.4 | 12.9 | 0.00 | 0.00 | 0.00 | 47 | 1020.4 |
| 20260506142743 | 11 | 329 | 6.4 | 19.3 | 0.00 | 0.00 | 0.00 | 43 | 1020.2 |
| 20260506142226 | 11 | 323 | 11.3 | 19.3 | 0.00 | 0.00 | 0.00 | 44 | 1020.2 |
| 20260506141738 | 10 | 347 | 8.0 | 16.1 | 0.00 | 0.00 | 0.00 | 43 | 1020.1 |
| 20260506141532 | 10 | 5 | 9.7 | 16.1 | 0.00 | 0.00 | 0.00 | 44 | 1020.4 |
| 20260506141312 | 11 | 328 | 8.0 | 16.1 | 0.00 | 0.00 | 0.00 | 43 | 1020.2 |
| 20260506140733 | 10 | 342 | 9.7 | 16.1 | 0.00 | 0.00 | 0.00 | 44 | 1020.1 |
| 20260506140244 | 11 | 314 | 4.8 | 16.1 | 0.00 | 0.00 | 0.00 | 50 | 1020.1 |
| 20260506140018 | 10 | 316 | 6.4 | 16.1 | 0.00 | 0.00 | 0.00 | 51 | 1020.3 |
| 20260506135726 | 10 | 360 | 9.7 | 16.1 | 0.00 | 0.00 | 0.00 | 47 | 1020.0 |
| 20260506135238 | 10 | 355 | 11.3 | 16.1 | 0.00 | 0.00 | 0.00 | 47 | 1019.8 |
| 20260506134746 | 9 | 5 | 9.7 | 16.1 | 0.00 | 0.00 | 0.00 | 48 | 1019.8 |
| 20260506134514 | 9 | 5 | 12.9 | 16.1 | 0.00 | 0.00 | 0.00 | 48 | 1020.1 |
| 20260506134230 | 9 | 22 | 9.7 | 16.1 | 0.00 | 0.00 | 0.00 | 48 | 1019.7 |
| 20260506133740 | 9 | 5 | 9.7 | 14.5 | 0.00 | 0.00 | 0.00 | 48 | 1019.7 |
| 20260506133223 | 9 | 342 | 4.8 | 12.9 | 0.00 | 0.00 | 0.00 | 52 | 1019.7 |
| 20260506133006 | 8 | 355 | 3.2 | 12.9 | 0.00 | 0.00 | 0.00 | 53 | 1020.0 |
| 20260506132732 | 8 | 321 | 6.4 | 12.9 | 0.00 | 0.00 | 0.00 | 54 | 1019.7 |
| 20260506132242 | 8 | 5 | 8.0 | 12.9 | 0.00 | 0.00 | 0.00 | 51 | 1019.6 |
| 20260506131723 | 8 | 298 | 6.4 | 14.5 | 0.00 | 0.00 | 0.00 | 53 | 1019.6 |
| 20260506131548 | 8 | 360 | 6.4 | 14.5 | 0.00 | 0.00 | 0.00 | 55 | 1019.8 |
| 20260506131233 | 8 | 343 | 8.0 | 14.5 | 0.00 | 0.00 | 0.00 | 52 | 1019.5 |
| 20260506130744 | 8 | 350 | 6.4 | 12.9 | 0.00 | 0.00 | 0.00 | 54 | 1019.4 |
| 20260506130228 | 7 | 321 | 4.8 | 14.5 | 0.00 | 0.00 | 0.00 | 57 | 1019.4 |
| 20260506130050 | 7 | 324 | 8.0 | 14.5 | 0.00 | 0.00 | 0.00 | 56 | 1019.6 |
| 20260506125739 | 7 | 325 | 9.7 | 14.5 | 0.00 | 0.00 | 0.00 | 55 | 1019.3 |
| 20260506125222 | 7 | 310 | 9.7 | 14.5 | 0.00 | 0.00 | 0.00 | 56 | 1019.4 |
| 20260506124754 | 6 | 315 | 8.0 | 14.5 | 0.00 | 0.00 | 0.00 | 58 | 1019.3 |
| 20260506124534 | 6 | 321 | 6.4 | 9.7 | 0.00 | 0.00 | 0.00 | 59 | 1019.5 |
| 20260506124246 | 6 | 320 | 4.8 | 12.9 | 0.00 | 0.00 | 0.00 | 59 | 1019.1 |
| 20260506123728 | 6 | 329 | 6.4 | 12.9 | 0.00 | 0.00 | 0.00 | 59 | 1019.0 |
| 20260506123256 | 6 | 302 | 6.4 | 12.9 | 0.00 | 0.00 | 0.00 | 59 | 1018.9 |
| 20260506123006 | 5 | 309 | 4.8 | 12.9 | 0.00 | 0.00 | 0.00 | 59 | 1019.1 |
| 20260506122748 | 6 | 313 | 8.0 | 12.9 | 0.00 | 0.00 | 0.00 | 59 | 1018.9 |
| 20260506122227 | 5 | 323 | 4.8 | 8.0 | 0.00 | 0.00 | 0.00 | 60 | 1018.8 |
| 20260506121737 | 5 | 323 | 3.2 | 6.4 | 0.00 | 0.00 | 0.00 | 59 | 1018.6 |
| 20260506121556 | 5 | 323 | 3.2 | 6.4 | 0.00 | 0.00 | 0.00 | 59 | 1018.8 |
| 20260506121249 | 5 | 323 | 4.8 | 6.4 | 0.00 | 0.00 | 0.00 | 59 | 1018.6 |
| 20260506120730 | 5 | 323 | 3.2 | 6.4 | 0.00 | 0.00 | 0.00 | 59 | 1018.5 |
| 20260506120243 | 5 | 348 | 3.2 | 6.4 | 0.00 | 0.00 | 0.00 | 59 | 1018.5 |
| 20260506120039 | 4 | 347 | 3.2 | 6.4 | 0.00 | 0.00 | 0.00 | 59 | 1018.7 |
| 20260506115730 | 4 | 348 | 4.8 | 9.7 | 0.00 | 0.00 | 0.00 | 59 | 1018.4 |
| 20260506115240 | 4 | 330 | 4.8 | 9.7 | 0.00 | 0.00 | 0.00 | 58 | 1018.4 |
| 20260506114725 | 4 | 317 | 6.4 | 8.0 | 0.00 | 0.00 | 0.00 | 58 | 1018.3 |
| 20260506114540 | 4 | 327 | 4.8 | 8.0 | 0.00 | 0.00 | 0.00 | 58 | 1018.4 |